Location: Ferchesar
(52.6477°N, 12.4298°E)
Time: 13:28:58
(UTC+02:00)

Transit 4A - Pass Details

Date: 06 March 2021
Orbit: 869 x 975 km, 66.8° (Epoch: 16 April)

Event Time Altitude Azimuth Distance (km) Brightness Sun altitude
Rises 09:06:53 0° 180° (S) 3,657 11.6 18.8°
Reaches altitude 10° 09:09:44 10° 171° (S) 2,708 11.2 19.1°
Maximum altitude 09:15:09 31° 112° (ESE) 1,629 10.9 19.8°
Drops below altitude 10° 09:20:30 10° 53° (NE) 2,679 10.5 20.4°
Sets 09:23:17 0° 43° (NE) 3,611 11.0 20.7°
